GFSWCAN_prec_cloud_021.txt.gz
Cloud_Cover
0 0 0 0 0 0 0 0 0 2 5 5 4 5 5 5 5 52 18 70 99 100 100 22 5 57 35 12 46 25 100 100 96 100 73 5 5 100 88 100 100 100 100 98 98 30 5 99 100 100 26 11 4 5
0 0 0 0 0 0 1 0 5 5 5 4 5 5 5 5 6 30 74 98 50 100 98 6 3 2 4 4 23 100 100 100 100 100 98 58 95 77 97 100 100 100 100 100 100 100 97 99 100 95 5 5 5 10
0 0 0 0 2 5 4 3 0 5 5 32 100 100 100 100 100 90 88 100 92 70 92 47 1 18 7 43 100 100 100 96 100 100 100 100 100 100 97 100 100 100 100 100 100 80 17 5 100 96 6 100 99 47
0 0 0 0 0 0 4 5 5 11 5 82 81 100 76 99 56 100 100 100 100 100 100 51 5 5 79 88 100 100 100 100 100 100 100 100 100 100 100 100 100 100 100 100 100 100 100 100 95 82 65 50 100 56
0 0 0 0 0 4 5 22 90 100 100 100 100 72 14 89 100 100 100 99 100 100 100 44 6 32 70 96 84 100 100 100 99 100 100 100 100 100 100 100 100 100 100 98 98 98 100 100 66 100 100 91 100 100
0 0 0 0 0 5 5 100 100 49 17 100 100 100 100 100 100 100 100 100 96 100 100 100 100 100 100 18 54 22 94 100 98 100 100 100 100 100 100 100 100 100 92 100 100 96 86 100 66 100 100 100 100 100
0 0 0 0 0 5 19 5 20 100 100 100 100 100 100 100 100 100 100 100 100 97 100 94 100 100 100 100 82 79 100 100 100 94 100 100 100 100 100 100 100 100 100 100 100 74 94 100 100 100 100 100 100 100
0 0 2 0 3 4 5 5 66 100 100 100 100 100 100 100 100 100 100 100 100 100 100 100 100 100 100 100 100 100 100 100 100 100 100 100 100 100 100 100 100 100 100 100 100 100 100 100 100 100 100 100 100 100
0 0 5 0 0 0 4 44 100 100 100 100 100 100 100 100 100 100 100 100 100 100 100 100 100 100 100 100 100 100 100 100 98 100 100 100 100 100 100 100 100 100 100 100 100 100 100 100 100 100 100 100 100 100
0 0 5 5 0 0 5 93 100 100 100 100 100 100 100 100 100 100 100 100 100 100 100 100 100 100 100 100 100 100 100 100 100 100 100 100 100 100 100 100 100 100 100 100 100 100 100 100 100 100 100 100 100 86
0 0 1 5 6 0 1 43 100 18 66 100 100 100 100 100 100 100 100 100 100 100 100 100 100 100 100 100 100 100 100 100 100 100 100 100 100 100 100 100 100 100 100 100 100 100 100 100 100 100 100 100 100 65
0 0 0 5 20 35 0 5 5 5 20 93 100 100 100 100 100 100 100 100 100 100 100 100 100 100 100 100 100 100 100 100 100 100 100 100 100 100 100 100 100 100 100 100 100 100 100 100 100 100 100 100 100 100
0 0 0 0 2 26 9 0 1 2 5 31 89 100 100 100 100 100 100 100 100 100 100 100 100 100 100 100 100 100 100 100 100 100 100 100 100 100 100 100 100 100 100 100 100 100 100 100 100 100 100 100 100 100
2 5 2 0 4 4 60 99 5 0 3 2 28 67 100 100 100 100 100 100 100 100 100 100 100 100 100 100 100 100 100 100 100 100 100 100 100 100 100 100 100 100 100 100 100 100 100 100 100 100 100 100 97 95
0 5 2 9 100 100 100 7 26 2 3 7 7 80 100 100 100 100 100 100 100 100 100 100 100 100 100 100 100 100 100 100 100 100 100 100 100 100 100 100 100 100 100 100 100 100 100 100 100 100 100 100 100 100
0 0 1 29 100 78 27 21 20 32 5 42 97 75 100 100 100 100 100 100 100 100 100 100 100 100 100 100 100 100 100 100 100 100 100 100 100 100 100 100 100 100 100 100 100 100 100 100 100 100 100 100 100 100
3 8 92 100 63 5 5 5 42 97 56 100 25 56 100 100 100 100 100 100 100 100 100 100 100 100 100 100 100 100 100 100 100 100 100 100 100 100 100 100 100 100 100 100 100 100 100 100 100 100 100 100 100 100
36 1 34 96 5 6 100 92 55 100 44 14 7 67 97 100 100 100 100 100 100 100 100 100 100 100 100 100 100 100 100 100 100 100 100 100 100 100 100 100 100 100 100 100 100 100 100 100 100 100 98 100 100 99
0 0 14 94 19 47 21 84 100 100 90 95 57 33 20 99 100 100 100 100 100 100 100 100 100 100 100 100 100 100 100 100 100 100 100 100 100 99 100 100 100 100 100 100 100 100 100 100 100 81 93 100 100 95
0 0 0 1 6 5 73 67 77 94 100 100 100 100 99 97 52 50 69 48 100 100 100 100 100 100 100 100 100 100 99 100 100 100 100 100 100 100 100 100 100 100 99 99 89 93 100 90 46 100 100 85 5 14
0 0 0 0 0 5 10 64 39 97 100 100 65 100 100 100 100 100 94 100 100 100 100 100 100 80 100 55 25 100 100 99 99 36 44 25 15 22 70 100 100 100 100 100 100 100 100 100 100 90 87 50 100 83
4 5 1 0 15 1 4 5 5 5 81 64 18 41 15 76 72 83 83 100 100 100 100 100 100 88 100 99 91 100 62 53 88 85 65 44 48 37 27 27 59 36 25 96 100 100 100 100 100 93 96 95 100 100
5 5 1 15 36 33 42 4 4 5 5 5 62 38 33 10 14 23 56 32 96 99 84 99 98 92 75 86 90 96 100 87 97 100 93 80 19 8 36 23 83 81 55 43 14 77 83 56 44 100 100 83 9 5
45 0 0 6 18 32 5 7 5 54 32 61 77 88 99 100 99 91 91 97 78 94 74 60 49 14 10 14 24 67 73 88 68 50 18 37 57 44 28 17 5 34 86 97 95 34 32 45 12 6 5 5 5 5
61 53 56 99 8 59 88 66 27 86 100 100 80 84 100 100 100 100 100 98 100 99 93 92 93 68 93 86 79 56 5 68 60 38 5 5 89 93 86 52 40 88 19 16 26 6 5 5 5 5 5 39 5 5
99 98 100 100 100 100 100 80 99 34 5 30 71 5 81 55 87 100 99 87 86 54 5 5 5 75 100 84 37 5 4 0 0 0 4 81 45 15 5 5 5 4 0 2 3 3 3 5 5 27 23 5 67 95
100 100 100 100 99 98 99 56 6 5 6 17 90 35 65 96 98 84 32 12 16 27 15 5 8 99 60 7 5 5 5 2 0 0 11 22 29 5 5 5 5 0 1 0 1 2 1 1 0 4 40 83 66 13
100 97 75 41 25 41 31 7 1 4 5 6 48 5 49 95 80 10 7 22 49 100 76 66 100 91 68 5 4 0 0 0 0 0 0 3 4 0 0 0 5 5 5 31 5 5 5 2 3 8 81 71 20 5
30 67 54 11 5 54 17 5 5 5 5 5 5 5 13 5 6 46 4 6 52 95 87 100 44 5 5 2 3 5 4 0 0 0 0 0 0 0 1 0 4 4 1 14 78 6 38 25 11 11 5 5 5 2
83 34 6 7 5 5 5 5 11 5 5 7 19 5 7 42 64 14 9 5 7 11 10 5 5 2 1 0 0 4 5 0 0 0 0 0 0 4 5 5 5 5 5 29 100 80 18 5 5 5 5 5 5 5
92 73 6 6 17 35 16 34 13 5 5 9 33 30 17 37 7 14 25 5 5 1 4 5 5 5 5 5 4 5 5 5 5 4 4 4 5 5 5 5 5 5 5 63 84 73 5 5 16 6 5 17 37 12
100 40 6 98 70 6 22 16 54 62 61 58 89 80 11 10 5 16 21 5 5 0 0 4 5 5 39 43 14 4 5 5 5 5 5 5 5 5 5 5 5 5 5 64 53 11 75 80 83 48 80 78 44 5
9 9 18 6 67 87 35 6 22 5 39 45 66 37 81 30 12 29 54 10 1 0 1 0 0 4 5 16 50 50 24 16 5 5 5 5 5 5 15 10 7 5 26 86 99 100 100 81 71 17 47 52 6 32

GFSWCAN_prec_cloud_024.txt.gz
Cloud_Cover
0 0 0 0 0 0 0 0 4 5 53 85 100 100 100 100 100 100 79 100 99 100 97 99 73 95 84 60 63 19 26 8 5 96 100 96 8 1 3 5 100 100 100 100 100 100 94 2 0 15 24 0 0 0
0 0 0 0 0 4 73 32 3 4 5 5 5 44 22 95 98 100 100 100 100 100 94 6 5 7 6 5 5 16 12 61 96 100 100 99 78 5 8 5 56 100 100 100 100 100 94 5 49 67 22 1 0 0
0 0 0 0 1 4 1 49 77 100 100 100 100 100 100 100 100 100 100 100 100 100 77 51 39 38 4 5 79 100 100 100 100 100 100 100 100 71 99 13 87 100 100 100 100 100 100 72 4 67 74 0 2 1
0 0 0 0 0 2 2 30 6 6 86 93 100 100 100 53 66 81 96 100 100 100 100 37 1 5 5 26 59 74 94 100 100 100 100 100 100 100 96 100 99 100 100 100 100 100 100 100 39 19 14 7 2 2
0 0 0 0 5 19 100 100 100 100 100 100 100 100 100 100 10 54 100 85 89 100 100 64 19 50 100 100 100 91 80 100 94 100 100 100 100 100 100 100 100 100 100 100 100 100 100 92 100 93 55 84 34 45
0 0 0 0 14 82 100 97 20 98 100 100 100 100 100 100 100 100 100 100 100 100 100 100 54 89 91 39 100 100 100 100 100 100 100 100 100 100 100 100 100 100 100 100 100 100 100 100 90 100 100 100 100 100
0 0 0 0 4 13 98 16 96 100 100 100 100 100 100 100 100 100 100 100 100 100 100 100 100 100 100 100 100 100 100 100 90 99 100 100 100 100 100 100 100 100 100 100 100 100 100 95 91 100 100 100 100 100
0 0 0 0 3 5 52 5 36 100 100 100 100 100 100 100 100 100 100 100 100 100 100 100 100 100 100 100 100 100 100 96 100 100 100 100 100 100 100 100 100 100 100 100 100 100 100 98 100 100 100 100 100 100
0 0 0 0 0 4 5 6 26 100 100 100 100 100 100 100 100 100 100 100 100 100 100 100 100 100 100 100 100 100 100 100 100 100 100 100 100 100 100 100 100 100 100 100 100 100 100 100 100 100 100 100 100 100
0 0 0 0 0 0 0 4 5 5 39 100 100 100 100 100 100 100 100 100 100 100 100 100 100 100 100 100 100 100 100 100 100 100 100 100 100 100 100 100 100 100 100 100 100 100 100 100 100 100 100 100 100 100
0 0 0 0 3 1 0 3 0 5 8 99 100 100 100 100 100 100 100 100 100 100 100 100 100 100 100 100 100 100 100 100 100 100 100 100 100 100 100 100 100 100 100 100 100 100 100 100 100 100 100 100 100 100
0 0 5 5 5 5 2 4 5 15 5 100 100 82 100 100 100 100 100 100 100 100 100 100 100 100 100 100 100 100 100 100 100 100 100 100 100 100 100 100 100 100 100 100 100 100 100 100 100 100 100 100 100 98
0 0 5 5 30 5 4 2 10 5 5 100 55 100 100 100 100 100 100 100 100 100 100 100 100 100 100 100 100 100 100 100 100 100 100 100 100 100 100 100 100 100 100 100 100 100 100 100 100 100 100 100 100 100
0 5 5 2 1 5 5 5 0 6 45 66 100 100 100 100 100 100 100 100 100 100 100 100 100 100 100 100 100 100 100 100 100 100 100 100 100 100 100 100 100 100 100 100 100 100 100 100 100 100 100 100 100 100
1 0 0 5 5 34 59 7 3 1 56 87 100 100 100 99 100 100 100 100 100 100 100 100 100 100 100 100 100 100 100 100 100 100 100 100 100 100 100 100 100 100 100 100 100 100 100 100 100 100 100 100 100 91
0 1 0 6 84 100 21 5 0 1 5 100 100 100 99 94 100 100 100 100 100 100 100 100 100 100 100 100 100 100 100 100 100 100 100 100 100 100 100 100 100 100 100 100 100 100 100 100 100 99 100 100 100 100
1 16 0 4 8 31 6 13 5 28 67 99 100 98 98 76 100 100 56 100 100 100 100 100 100 100 100 100 100 100 100 100 100 100 100 100 100 100 100 100 100 100 100 100 100 100 100 100 100 100 100 100 100 100
16 1 0 3 6 8 20 100 32 80 100 79 99 100 95 88 100 100 100 94 100 100 100 100 100 100 100 100 100 100 100 100 100 100 100 100 100 100 100 100 100 100 100 100 100 100 100 100 100 100 100 100 100 100
0 0 0 0 24 76 100 46 90 99 99 76 40 52 97 37 94 100 100 100 100 100 100 97 100 100 100 100 100 100 91 100 84 89 98 86 99 82 99 100 100 100 100 100 100 100 99 100 100 100 100 100 100 100
0 0 0 0 0 0 1 25 41 5 91 98 100 100 73 80 82 95 100 100 100 100 99 50 46 96 98 77 75 100 100 100 100 100 100 100 100 100 100 100 100 100 100 100 100 100 100 100 100 100 100 100 100 100
0 0 1 0 0 0 1 1 5 51 56 22 29 40 73 100 73 95 83 100 100 100 100 100 94 91 99 65 31 97 100 84 100 100 100 100 88 69 69 49 66 75 88 100 86 46 51 83 91 90 86 100 100 100
2 0 0 0 0 1 4 3 5 5 68 49 47 41 32 62 84 56 39 80 85 100 100 100 100 94 12 40 56 56 50 32 14 78 92 93 84 83 87 87 77 81 59 34 8 6 3 4 5 4 2 5 9 50
1 1 10 98 86 55 44 5 5 12 68 100 98 100 100 98 18 75 20 77 84 85 91 90 75 86 51 44 76 49 24 6 31 57 5 5 5 9 41 98 100 100 100 100 95 93 100 100 98 53 23 9 4 4
5 37 7 24 97 96 82 98 18 61 94 78 88 74 61 90 99 99 96 89 75 85 52 54 18 45 18 74 92 59 39 22 33 12 10 32 75 97 86 64 62 33 28 95 72 28 8 6 64 31 5 5 22 34
98 100 100 100 100 100 98 83 50 23 18 81 16 15 5 40 100 94 70 36 8 5 5 5 70 44 6 5 1 0 0 0 0 0 0 3 5 5 5 5 5 5 5 5 5 2 0 5 3 4 5 5 5 5
100 99 100 57 7 5 5 5 5 34 5 21 24 17 5 18 15 6 5 5 5 16 17 18 41 44 35 5 5 1 0 0 0 0 0 0 0 0 2 2 0 0 0 0 0 0 0 0 0 0 0 1 2 3
89 88 60 16 6 5 5 5 5 4 4 7 14 5 6 33 14 2 0 11 60 89 64 89 99 6 39 72 8 5 5 4 1 1 0 0 0 0 0 0 0 0 2 1 1 0 0 0 0 4 5 5 5 5
0 1 3 5 15 3 5 5 5 6 20 5 5 5 5 61 5 5 4 85 87 58 80 5 93 94 67 10 0 0 0 0 0 0 0 0 0 0 0 0 0 0 5 5 5 5 5 5 5 3 2 0 0 0
5 5 4 5 5 5 5 5 9 23 49 5 5 5 5 5 5 5 3 4 4 5 4 14 3 5 5 7 5 5 4 0 0 0 0 0 0 0 0 0 0 0 4 5 5 39 75 37 5 5 5 2 0 0
71 5 5 5 4 5 14 16 26 8 5 5 5 5 10 5 5 12 7 5 5 5 5 0 0 0 0 5 41 12 8 5 5 6 5 5 5 5 5 5 5 4 5 5 7 21 9 4 3 2 4 5 5 5
47 16 5 22 5 5 41 33 20 23 45 36 45 54 70 8 11 5 5 5 5 5 5 5 0 0 4 4 2 8 48 50 54 52 55 49 37 5 6 30 33 36 14 50 49 31 17 5 5 5 5 5 5 2
53 32 5 5 4 5 5 52 80 60 24 5 5 5 5 5 63 12 5 5 5 5 1 0 5 5 5 5 5 1 5 5 5 5 5 12 45 51 48 36 55 70 84 100 100 100 99 99 86 9 5 5 5 5
4 66 64 5 5 5 32 79 80 33 8 6 26 5 5 5 5 5 5 5 5 2 0 2 5 5 5 14 5 3 3 5 5 5 5 5 5 5 14 44 53 51 84 100 100 100 100 100 66 25 5 5 5 5

GFSWCAN_prec_cloud_030.txt.gz
Cloud_Cover
80 55 1 0 0 0 0 4 5 97 100 96 100 100 100 100 100 100 96 83 99 100 100 90 98 100 100 100 90 99 30 42 68 99 65 62 82 29 35 2 0 1 7 37 13 24 0 0 0 0 0 8 24 95
100 26 5 0 0 0 0 0 10 100 77 89 100 100 100 100 100 100 100 99 100 100 99 93 9 6 19 73 100 100 100 74 100 71 93 100 90 70 93 72 0 3 4 3 0 0 0 2 0 0 10 39 20 99
100 25 4 0 0 0 0 0 5 100 100 69 100 100 100 100 100 100 100 100 100 100 100 98 89 5 5 6 44 100 100 100 100 20 81 63 100 97 51 6 5 5 2 4 65 0 0 0 0 0 2 0 47 100
100 6 4 0 0 0 0 0 24 89 82 31 100 100 100 100 100 100 100 100 100 100 100 100 99 91 4 5 29 34 65 92 100 100 100 100 100 76 100 59 74 5 5 1 92 5 1 1 0 5 5 13 100 67
100 8 5 0 0 0 0 5 0 12 4 95 100 100 100 100 100 100 100 100 100 100 100 100 80 69 77 99 100 100 100 100 100 100 100 100 100 100 100 78 92 98 4 25 0 0 3 1 0 38 100 100 98 10
100 5 1 0 0 0 0 10 5 5 86 24 100 100 100 100 100 100 100 100 100 100 100 100 100 100 100 100 100 100 100 100 100 100 100 100 100 100 100 100 76 100 86 5 28 5 16 45 3 6 100 98 90 94
7 5 0 0 0 0 0 7 6 7 50 87 100 100 100 100 100 100 100 100 100 100 100 100 99 80 94 100 100 100 100 100 100 100 100 100 100 100 100 100 100 100 100 77 100 100 100 100 99 92 100 97 50 39
33 4 0 0 0 0 0 15 94 16 60 18 100 100 96 100 100 100 100 100 100 100 100 100 100 100 100 93 100 100 100 100 100 100 100 100 100 100 100 100 100 100 98 86 82 100 100 100 100 86 24 39 3 9
51 1 0 0 1 16 13 0 91 17 5 59 20 88 94 100 100 100 100 100 100 100 100 100 100 97 80 100 100 100 100 100 100 100 100 100 100 100 100 100 100 61 99 100 100 100 100 100 100 97 82 98 6 44
5 0 0 5 36 27 5 0 3 7 40 67 35 9 69 100 100 100 100 100 100 100 100 100 100 100 100 100 100 100 100 100 100 100 100 100 100 100 100 100 100 100 100 100 100 100 100 100 100 100 97 53 100 100
12 52 54 94 46 24 2 0 1 93 6 55 64 18 90 100 100 100 100 100 100 100 100 100 100 100 100 100 100 100 100 100 100 100 100 100 100 100 100 100 100 100 100 100 100 100 100 95 100 99 100 100 100 100
91 83 82 54 33 28 3 0 63 98 49 95 100 100 100 100 100 100 100 100 100 100 100 100 100 100 100 100 100 100 100 100 100 100 100 100 100 100 100 100 100 100 100 100 100 100 100 100 100 100 100 100 100 100
100 100 82 35 12 0 0 0 11 88 69 100 84 100 88 100 100 100 100 100 100 100 100 100 100 100 100 100 100 100 100 100 100 100 100 100 100 100 100 100 100 100 100 100 100 100 100 100 100 100 100 100 100 100
99 52 14 0 0 0 0 2 5 5 100 100 100 100 99 100 100 100 100 100 100 100 100 100 100 100 100 100 100 100 100 100 100 100 100 100 100 100 100 100 100 100 100 100 100 100 100 100 100 100 100 100 100 100
46 6 0 0 0 0 1 97 5 54 100 100 100 100 66 100 89 100 100 100 100 100 100 100 100 100 100 100 100 100 100 100 100 100 100 100 100 100 100 100 100 100 100 100 100 100 100 100 100 100 100 100 100 100
5 0 0 0 0 0 52 83 21 96 60 100 100 100 80 67 76 100 100 84 100 100 100 100 100 100 100 100 100 100 100 100 100 100 100 100 100 100 100 100 100 100 100 100 100 100 100 100 100 100 100 100 100 100
0 0 0 0 0 0 20 100 96 34 86 100 100 100 100 100 100 100 100 100 99 100 100 100 100 100 100 100 100 100 100 100 100 100 100 100 100 100 100 100 100 100 100 100 100 100 100 100 100 100 100 100 100 98
0 0 0 0 18 9 0 36 92 27 8 84 87 100 99 72 67 99 100 100 59 100 83 100 100 100 100 100 100 100 100 100 100 100 100 100 100 100 100 100 100 100 100 100 100 100 100 100 100 100 100 100 100 100
1 0 0 0 36 0 0 63 81 91 97 100 24 57 94 100 100 100 100 99 55 26 23 9 52 85 100 99 96 94 100 100 100 100 100 100 100 100 100 100 100 100 100 100 100 100 100 100 100 100 100 100 100 100
0 0 0 1 4 5 0 0 3 21 24 23 85 83 84 36 26 29 66 100 100 100 80 33 58 79 50 25 45 67 99 66 62 98 78 50 85 100 100 100 100 100 100 100 100 100 100 100 100 100 100 100 100 100
0 0 0 0 0 5 2 4 5 5 5 5 5 11 38 76 57 28 5 26 34 9 42 77 97 100 100 100 84 62 16 21 98 60 100 99 45 6 21 34 87 73 28 48 100 96 95 100 100 92 100 100 100 99
0 0 0 0 0 0 4 2 4 6 77 89 60 48 92 79 51 14 5 5 5 5 5 41 10 47 44 18 4 5 2 0 0 2 5 5 5 73 77 65 75 81 96 31 5 68 100 67 12 79 100 99 100 100
0 0 0 0 0 3 3 5 5 5 5 5 4 5 8 84 64 18 5 5 4 5 9 10 5 5 5 5 5 0 0 0 0 0 0 3 5 6 65 60 35 9 5 5 5 5 5 5 20 77 37 4 0 1
0 0 0 0 5 34 1 0 0 3 5 5 5 5 5 16 93 19 5 5 5 5 5 5 42 26 38 9 0 0 0 0 0 0 0 0 0 0 0 0 0 0 0 0 0 0 1 0 1 1 2 0 0 0
0 0 0 2 0 0 3 5 4 4 4 5 3 4 5 44 47 7 5 5 5 5 5 5 9 3 2 1 0 0 0 0 0 0 0 0 0 0 0 0 0 0 0 0 0 0 0 0 0 0 0 0 0 0
14 0 28 0 0 0 5 5 2 2 0 2 5 5 5 5 5 5 5 5 5 5 4 4 1 5 5 0 0 0 0 0 0 0 3 0 0 0 0 0 0 0 0 0 0 3 0 0 0 0 0 0 0 0
6 0 0 0 0 0 2 5 5 3 5 0 3 5 5 5 5 5 2 5 9 5 5 5 0 0 0 0 0 0 3 2 5 4 2 2 4 2 5 2 0 0 0 3 5 5 5 1 5 5 5 2 0 0
0 0 0 0 1 4 3 5 5 5 5 5 11 5 5 5 5 5 5 30 18 22 22 5 0 0 0 0 1 5 5 5 5 5 3 4 5 2 1 0 0 4 3 5 4 5 5 5 5 5 5 4 5 5
7 0 0 5 5 5 1 2 5 5 5 6 100 63 5 5 12 74 70 80 79 75 91 59 5 5 5 5 4 4 0 0 0 0 0 0 0 0 0 0 0 0 4 5 5 5 5 5 5 5 5 5 5 5
5 2 0 0 0 3 3 4 3 18 75 51 100 100 100 100 100 100 98 28 39 68 41 86 52 5 5 4 0 0 0 0 0 0 0 0 2 4 6 9 9 12 12 5 5 5 5 5 5 5 5 5 5 13
72 78 5 5 3 2 5 5 5 26 49 73 92 100 100 100 100 100 100 42 5 8 10 27 21 5 5 5 4 0 0 1 2 5 5 5 8 91 99 100 99 98 71 23 5 5 5 5 17 41 60 40 34 57
35 5 5 22 26 19 53 56 8 5 56 100 100 100 100 100 100 100 100 92 73 59 5 5 5 5 5 5 5 0 0 0 5 5 5 5 18 60 61 20 59 63 44 16 8 30 64 64 65 85 75 72 99 100
5 5 18 61 15 14 5 5 5 6 45 91 100 99 100 99 90 86 100 100 88 34 5 5 5 5 5 5 4 0 0 1 5 5 5 23 92 94 78 33 5 5 14 76 100 100 100 98 97 97 97 97 96 100

GFSWCAN_prec_cloud_033.txt.gz
Cloud_Cover
76 100 100 82 5 0 0 0 0 0 20 100 88 59 100 100 100 100 100 100 100 100 100 96 96 100 100 100 91 78 62 52 69 53 79 94 88 14 42 2 0 0 4 5 4 2 0 0 0 0 0 2 0 2
100 100 100 5 5 0 0 0 0 4 5 55 82 86 100 100 100 100 100 100 100 100 100 99 100 100 91 78 100 100 45 5 18 70 74 94 70 66 48 96 5 4 1 46 0 0 0 0 0 0 0 0 0 0
100 100 92 5 2 0 0 0 0 1 4 10 91 100 99 100 100 100 100 100 100 100 100 70 86 100 97 51 54 100 100 97 65 71 78 75 57 22 54 78 67 8 5 5 2 0 0 0 0 0 0 0 0 0
100 100 33 5 0 0 0 0 2 4 60 33 98 100 100 100 100 100 100 100 100 100 100 100 100 100 100 100 100 100 100 100 100 100 100 100 100 35 54 39 49 42 67 35 6 3 1 0 0 0 0 0 0 0
100 99 5 5 0 0 0 0 4 6 40 74 93 100 100 100 100 100 100 100 100 100 100 100 100 100 100 100 100 100 100 100 100 100 100 100 100 97 100 92 88 100 94 29 15 1 0 0 0 2 0 0 0 0
100 22 42 5 0 0 0 6 0 7 51 96 100 100 100 100 100 100 100 100 100 100 100 100 100 100 100 100 100 100 100 100 100 100 100 100 100 100 100 100 100 100 90 14 5 5 5 0 4 1 1 65 6 82
98 5 5 3 0 0 0 28 29 42 64 92 100 85 100 100 100 100 100 100 100 100 100 100 100 100 100 100 100 100 100 100 100 100 100 100 100 100 100 100 100 100 100 99 91 50 23 56 22 89 22 64 28 100
22 5 3 0 12 47 70 51 42 51 83 100 100 98 74 100 100 100 100 100 100 100 100 100 100 100 100 100 100 100 100 100 100 100 100 100 100 100 100 100 100 100 100 100 100 64 6 100 100 100 23 98 100 100
9 7 31 87 100 100 96 90 61 83 100 93 22 73 91 100 100 100 100 100 100 100 100 100 100 100 100 100 100 100 100 100 100 100 100 100 100 100 100 100 100 92 80 52 56 52 98 100 92 76 99 100 100 100
39 96 100 100 100 100 100 75 66 94 81 5 25 59 79 100 100 100 100 100 100 100 100 100 100 100 100 100 100 100 100 100 100 100 100 100 100 100 100 100 100 80 100 100 100 100 100 100 100 100 100 69 100 70
100 100 100 100 100 84 52 27 51 100 5 6 73 73 100 100 100 100 100 100 100 100 100 100 100 100 100 100 100 100 100 100 100 100 100 100 100 100 100 100 100 100 100 100 100 100 100 100 100 100 100 100 100 100
100 100 100 98 60 17 1 4 96 83 97 100 97 100 100 100 100 100 100 100 100 100 100 100 100 100 100 100 100 100 100 100 100 100 100 100 100 100 100 100 100 100 100 100 100 100 100 100 100 100 100 87 100 88
100 100 26 53 7 0 0 28 64 99 72 100 100 100 100 100 99 100 100 100 100 100 100 100 100 100 100 100 100 100 100 100 100 100 100 100 100 100 100 100 100 100 100 100 100 100 100 100 100 100 100 100 99 100
100 78 37 6 0 1 4 6 100 100 81 100 100 100 100 100 100 100 99 96 87 100 100 100 100 100 100 100 100 100 100 100 100 100 100 100 100 100 100 100 100 100 100 100 100 100 100 100 100 100 100 100 100 100
84 31 2 0 0 0 0 58 100 100 10 94 100 100 83 99 100 100 76 68 78 63 86 100 100 100 100 100 100 100 100 100 100 100 100 100 100 100 100 100 100 100 100 100 100 100 100 100 100 100 100 100 100 100
22 0 0 0 0 4 4 2 38 100 92 64 99 100 93 100 100 100 98 100 100 98 98 96 84 81 35 100 100 100 100 100 100 100 100 100 100 95 100 100 100 100 100 100 100 100 100 100 100 100 100 100 100 100
0 0 0 0 0 0 2 4 4 5 67 69 44 100 100 100 99 100 100 91 59 100 100 78 100 100 52 39 100 100 100 100 100 100 100 100 100 100 100 100 100 100 100 100 100 100 100 100 100 100 100 100 100 100
0 0 0 0 6 0 0 0 0 5 4 21 20 48 99 100 98 10 11 100 100 99 9 5 5 72 100 99 81 59 50 100 100 24 100 100 100 100 100 100 100 100 100 100 100 100 100 100 100 100 100 100 100 100
0 0 0 0 0 1 1 0 1 4 5 6 55 39 5 5 3 43 52 29 67 85 71 37 5 8 9 7 38 58 14 5 8 95 100 100 100 100 100 100 100 100 100 100 100 100 100 100 100 100 100 100 100 100
0 0 0 1 0 0 0 2 1 4 5 5 35 99 100 31 24 5 3 3 11 13 4 5 20 40 7 5 5 4 5 5 5 5 35 99 100 100 100 100 100 100 100 100 100 100 100 100 100 100 100 100 100 100
0 0 0 0 0 0 5 5 5 5 12 94 97 83 25 49 7 5 5 5 5 5 6 38 20 18 5 5 4 0 0 0 0 3 18 88 94 100 100 100 100 96 100 100 100 100 100 100 100 100 100 100 100 100
0 0 0 0 0 0 0 0 1 5 5 5 5 5 5 5 23 5 5 4 5 5 5 7 32 48 94 41 4 0 0 0 0 0 1 38 83 83 72 48 45 5 3 2 0 11 3 5 45 74 47 100 100 100
0 0 0 0 0 25 1 0 0 0 1 0 0 4 5 5 5 5 5 5 5 5 6 66 97 39 47 36 4 0 0 0 0 0 0 0 0 0 0 0 0 1 2 1 0 0 3 5 1 24 69 76 70 59
0 0 0 0 5 32 0 0 0 0 1 1 0 4 5 24 22 6 5 5 5 5 5 7 17 5 5 5 2 0 0 0 0 0 0 0 0 0 0 0 0 0 0 0 0 0 0 0 0 0 0 0 0 0
0 4 15 9 0 0 0 0 0 0 5 5 32 100 82 12 5 5 51 41 5 5 5 5 1 4 1 0 0 0 0 0 0 0 0 0 0 0 0 0 0 0 0 0 0 2 0 5 5 5 5 5 5 5
14 0 1 0 0 0 0 0 0 1 5 5 36 100 100 68 19 27 5 5 5 5 5 5 5 5 5 5 5 1 0 0 0 0 0 0 0 0 0 0 0 0 0 0 2 5 3 0 0 2 5 5 2 5
0 0 0 13 0 0 0 0 0 2 4 54 66 90 80 42 29 6 5 6 15 45 44 20 7 14 27 5 5 5 5 1 0 0 0 0 0 0 0 0 0 0 0 5 5 5 5 5 5 5 5 5 5 5
0 0 0 0 0 0 2 5 5 5 5 5 89 51 5 5 5 24 89 100 100 100 100 100 100 100 82 27 5 12 10 5 5 5 2 0 0 0 0 0 0 3 5 5 5 5 5 5 5 5 5 5 5 5
5 2 0 0 0 0 4 5 3 1 2 5 5 5 5 6 7 64 55 100 85 100 100 100 100 82 58 37 5 5 5 5 3 0 0 2 5 4 0 5 5 5 36 5 49 5 38 32 5 5 5 5 8 72
34 5 5 5 5 5 5 1 0 0 3 6 66 80 94 100 85 66 100 100 99 100 100 100 100 79 29 7 6 5 3 0 1 3 5 5 5 5 5 3 0 5 5 5 5 8 5 23 46 96 85 90 89 95
5 48 80 32 58 60 30 5 8 67 90 81 98 100 100 100 100 98 100 100 100 100 100 99 83 11 6 5 5 0 0 0 4 5 5 5 5 5 5 5 5 5 5 5 5 33 80 87 90 93 93 90 84 68
5 67 78 5 5 8 19 44 95 100 100 89 64 94 99 99 100 100 100 100 100 100 100 100 48 5 5 5 0 0 0 0 5 5 5 5 22 68 85 74 53 17 56 83 88 95 95 94 92 96 95 98 97 89
4 4 5 9 33 41 31 43 99 100 100 100 88 93 63 68 99 100 100 100 100 100 100 60 5 5 3 0 0 0 0 0 4 11 69 87 100 100 100 100 95 78 84 86 92 94 85 78 98 100 100 100 100 100